Zurück zum Katalog

NIMBUS 2 DEB

AktivLEO
NORAD 37888·DEBRIS·🇺🇸 United States

Gestartet May 15, 1966 von Vandenberg Space Force Base

Loading…

Nächste Überflüge (nächste 24 Stunden)

TLE

AktuellSource: Space-Track

Epoche: Sep 14, 2026, 15:07 UTC

1 37888U 66040AT  26257.63027068  .00001170  00000-0  18934-2 0  9990
2 37888 100.6066 299.3702 0044349  15.3788 135.9762 13.50407846848183

Verfolge NIMBUS 2 DEB in Echtzeit mit AllMySat

Download on the App Store